London, United Kingdom

10:06 PM BST on July 24, 2017 (GMT +0100)
Heathrow

Weather History for EGLL - June, 2013

Change the Weather History Date:

Thursday, June 20, 2013

  Actual Average Record
Temperature  
Mean Temperature 66 °F -  
Max Temperature 70 °F 70 °F 88 °F (2017)
Min Temperature 60 °F 54 °F 46 °F (1997)
Growing Degree Days 16 (Base 50)    
Moisture  
Dew Point 58 °F    
Average Humidity 76    
Maximum Humidity 88    
Minimum Humidity 61    
Precipitation  
Precipitation 0.00 in - - ()
Sea Level Pressure  
Sea Level Pressure 29.89 in    
Wind  
Wind Speed 7 mph ()    
Max Wind Speed 13 mph    
Max Gust Speed 24 mph    
Visibility 4.5 miles    
Events      
Averages and records for this station are not official NWS values.
T = Trace of Precipitation, MM = Missing Value Source: Averaged Metar Reports

Daily Weather History Graph

Daily Weather History Graph

Search for Another Location

Airport or City:

Trip Planner

Search our weather history database for the weather conditions in past years. The results will help you decide how hot, cold, wet, or windy it might be!

Date:

Astronomy

Jun. 20, 2013 Rise Set
Actual Time 4:44 AM BST 9:22 PM BST
Civil Twilight 3:56 AM BST 10:10 PM BST
Nautical Twilight 2:42 AM BST 11:24 PM BST
Astronomical Twilight 1:35 AM BST 12:31 AM BST
Moon 5:52 PM BST (6/20) 2:19 AM BST (6/20)
Length of Visible Light 18h 13m
Length of Day
16h 38m
Waxing Gibbous, 87% of the Moon is Illuminated
Jun 20
Waxing Gibbous
Jun 23
Full
Jun 30
Last Quarter
Jul 8
New
Jul 16
First Quarter

Hourly Weather History & Observations

Time (BST) Temp. Dew Point Humidity Pressure Visibility Wind Dir Wind Speed Gust Speed Precip Events Conditions
12:20 AM 64.4 °F 59.0 °F 83% 29.98 in 5.0 mi East 8.1 mph - N/A   Unknown
12:50 AM 65 °F 59 °F 75% 29.97 in 3 mi ENE 5.8 mph - -   Light Haze
12:50 AM 64.4 °F 59.0 °F 83% 29.98 in 4.3 mi ENE 5.8 mph - N/A   Unknown
1:20 AM 64.4 °F 59.0 °F 83% 29.95 in 4.3 mi ENE 9.2 mph - N/A   Partly Cloudy
1:50 AM 64.4 °F 59.0 °F 83% 29.95 in 3.7 mi ENE 8.1 mph - N/A   Mostly Cloudy
2:20 AM 64.4 °F 59.0 °F 83% 29.95 in 3.7 mi ENE 9.2 mph - N/A   Mostly Cloudy
2:50 AM 64.4 °F 59.0 °F 83% 29.95 in 3.1 mi ENE 5.8 mph - N/A   Overcast
3:20 AM 64.4 °F 57.2 °F 77% 29.95 in 3.1 mi NE 6.9 mph - N/A   Scattered Clouds
3:50 AM 63 °F 57 °F 76% 29.95 in 3 mi NE 6.9 mph - -   Light Haze
3:50 AM 62.6 °F 57.2 °F 82% 29.95 in 3.1 mi ENE 8.1 mph - N/A   Unknown
4:20 AM 62.6 °F 57.2 °F 82% 29.95 in 3.7 mi ENE 6.9 mph - N/A   Unknown
4:50 AM 62.6 °F 57.2 °F 82% 29.92 in 3.1 mi ENE 8.1 mph - N/A   Haze
5:20 AM 62.6 °F 57.2 °F 82% 29.92 in - ENE 6.9 mph - N/A   Haze
5:50 AM 62.6 °F 59.0 °F 88% 29.95 in - East 6.9 mph - N/A   Haze
6:20 AM 62.6 °F 57.2 °F 82% 29.95 in - ENE 6.9 mph - N/A   Haze
6:50 AM 62 °F 57 °F 79% 29.94 in 3 mi NE 6.9 mph - -   Light Haze
6:50 AM 62.6 °F 57.2 °F 82% 29.92 in 2.8 mi ENE 6.9 mph - N/A   Haze
7:20 AM 62.6 °F 57.2 °F 82% 29.92 in 3.1 mi ENE 6.9 mph - N/A   Haze
7:50 AM 64.4 °F 57.2 °F 77% 29.92 in 3.1 mi ENE 6.9 mph - N/A   Haze
8:20 AM 64.4 °F 57.2 °F 77% 29.92 in 3.7 mi ENE 6.9 mph - N/A   Scattered Clouds
8:50 AM 64.4 °F 57.2 °F 77% 29.92 in 3.7 mi East 6.9 mph - N/A   Scattered Clouds
9:20 AM 66.2 °F 57.2 °F 73% 29.92 in 4.3 mi ENE 6.9 mph - N/A   Partly Cloudy
9:50 AM 67 °F 57 °F 62% 29.91 in 6 mi East 9.2 mph - -   Light Haze
9:50 AM 66.2 °F 57.2 °F 73% 29.92 in 5.0 mi East 9.2 mph - N/A   Unknown
10:20 AM 66.2 °F 57.2 °F 73% 29.92 in 5.0 mi East 9.2 mph - N/A   Partly Cloudy
10:50 AM 69.8 °F 59.0 °F 68% 29.92 in 5.0 mi East 8.1 mph - N/A   Mostly Cloudy
11:20 AM 68.0 °F 59.0 °F 73% 29.89 in 5.0 mi ESE 9.2 mph - N/A   Mostly Cloudy
11:50 AM 68.0 °F 59.0 °F 73% 29.89 in 4.3 mi ESE 6.9 mph - N/A   Mostly Cloudy
12:20 PM 68.0 °F 59.0 °F 73% 29.89 in 4.3 mi ESE 6.9 mph - N/A   Mostly Cloudy
12:50 PM 67 °F 59 °F 67% 29.89 in 5 mi SE 6.9 mph - -   Light Haze
12:50 PM 68.0 °F 59.0 °F 73% 29.89 in 4.3 mi SSE 5.8 mph - N/A   Mostly Cloudy
1:20 PM 68.0 °F 59.0 °F 73% 29.86 in 4.3 mi Variable 3.5 mph - N/A   Mostly Cloudy
1:50 PM 68.0 °F 60.8 °F 78% 29.86 in 4.3 mi Variable 3.5 mph - N/A   Mostly Cloudy
2:20 PM 68.0 °F 60.8 °F 78% 29.86 in 4.3 mi SSE 5.8 mph - N/A   Mostly Cloudy
2:50 PM 68.0 °F 60.8 °F 78% 29.83 in 4.3 mi Variable 3.5 mph - N/A   Mostly Cloudy
3:20 PM 68.0 °F 60.8 °F 78% 29.83 in 3.7 mi South 6.9 mph - N/A   Mostly Cloudy
3:50 PM 68 °F 61 °F 71% 29.84 in 4 mi South 6.9 mph - -   Light Haze
3:50 PM 68.0 °F 60.8 °F 78% 29.83 in 3.1 mi SSW 8.1 mph - N/A   Haze
4:20 PM 68.0 °F 60.8 °F 78% 29.83 in 3.1 mi SSW 8.1 mph - N/A   Haze
4:50 PM 68.0 °F 62.6 °F 83% 29.83 in 3.1 mi SW 8.1 mph - N/A   Haze
5:20 PM 68.0 °F 62.6 °F 83% 29.83 in 3.7 mi SSW 6.9 mph - N/A   Mostly Cloudy
5:50 PM 69.8 °F 60.8 °F 73% 29.83 in 4.3 mi SSW 6.9 mph - N/A   Mostly Cloudy
6:20 PM 69.8 °F 59.0 °F 68% 29.83 in 6.2 mi SSW 9.2 mph - N/A   Scattered Clouds
6:50 PM 68 °F 58 °F 61% 29.83 in 12 mi SW 12.7 mph - -   Mostly Cloudy
6:50 PM 68.0 °F 59.0 °F 73% 29.83 in 6.2 mi SW 12.7 mph - N/A   Scattered Clouds
7:20 PM 68.0 °F 57.2 °F 68% 29.83 in 6.2 mi SW 12.7 mph - N/A   Partly Cloudy
7:50 PM 66.2 °F 55.4 °F 68% 29.83 in - WSW 12.7 mph 24.2 mph N/A   Clear
8:20 PM 66.2 °F 55.4 °F 68% 29.83 in - WSW 11.5 mph - N/A   Clear
8:50 PM 66.2 °F 57.2 °F 73% 29.83 in - WSW 10.4 mph - N/A   Clear
9:20 PM 64.4 °F 57.2 °F 77% 29.83 in - West 9.2 mph - N/A   Clear
9:50 PM 64 °F 56 °F 68% 29.83 in 12 mi SW 4.6 mph - -   Mostly Cloudy
9:50 PM 64.4 °F 57.2 °F 77% 29.83 in - SW 6.9 mph - N/A   Clear
10:20 PM 64.4 °F 57.2 °F 77% 29.83 in - SW 6.9 mph - N/A   Clear
10:50 PM 62.6 °F 57.2 °F 82% 29.80 in 6.2 mi SW 6.9 mph - N/A   Partly Cloudy
11:20 PM 62.6 °F 57.2 °F 82% 29.80 in - WSW 8.1 mph - N/A   Clear
11:50 PM 60.8 °F 55.4 °F 82% 29.80 in - WSW 8.1 mph - N/A   Clear